Back to catalog

STARLINK-38103

AliveCommunicationsVLEO
NORAD 100022·PAYLOAD·🇺🇸 United States

Launched Jul 14, 2026 from Vandenberg Space Force Base

Loading…

Next Passes (next 24 hours)

TLE

FreshSource: Space-Track

Epoch: Sep 14, 2026, 15:13 UTC

1 A0022U 26160X   26257.63447466 -.00059920  00000-0 -44656-3 0  9996
2 A0022  70.0015 211.2936 0003759 252.6520 107.4267 15.72621058 11072

Track STARLINK-38103 in real time with AllMySat

Download on the App Store